STARLINK-32171, 60332

Orbit data source: Space-Track

STARLINK-32171, 60332 is a payload satellite owned by SpaceX/Seattle (US) in LEO that was launched on Fri, 02 Aug 2024 UTC via an FALCON 9 launch vehicle from the Air Force Eastern Test Range (AFETR). Payload-class satellites include a variety of spacecraft equipped with specific instruments for various scientific and technological missions. These include communications satellites like Starlink; space stations such as the ISS; scientific satellites like the Hubble; Earth observation satellites from companies like Planet Labs, Umbra, and HawkEye 360; GPS; miniature CubeSats for education and research; and military/defense satellites.

Loading next visibility...
Identifier
60332, 2024-136D
Orbit
LEO
Last TLE update
7 hours ago
Origin
Manufacturer
SpaceX/Seattle
Mission
Operational Commercial Communications
Bus & Motor
STARLINK V2M, Unknown motor
Mass
730 kg wet, ~700 kg dry
Launch date (UTC)
2024-08-02 (11 months ago)
Launch vehicle
FALCON 9
Launch site
Air Force Eastern Test Range (AFETR)
Object type
Payload
Rocket body
Debris
Shape & HBR
Box + 2 Pan, 29 m
Radar Cross Section
33.884 m², Large (>1 m²)

Expand to show TLE details & history

TLE from 7 hours ago
0 STARLINK-32171
1 60332U 24136D   25182.91882265 -.00000530  00000-0 -57868-5 0  9998
2 60332  53.1594 160.2543 0001178  97.1494 262.9641 15.30188585 51274
Epoch: 2025-07-01T22:03Z
TLE epoch observation values (Epoch: 2025-07-01T22:03:06.276Z)
Latitude
-0.00002°
Longitude
-90.72924°
Altitude
476.248 km
Speed
7.629 km/s
True Right ascension
10h 41m 01s
True Declination
0° 00' 00"
Sunlit
Object was in daylight at epoch
Visualization orbit readout
Latitude
-42.80596°
Longitude
131.4933°
Altitude
490.192 km
Speed
7.619 km/s
Apparent Right ascension
03h 14m 43s
Apparent Declination
-44° 25' 56"
Sunlit
Object is in daylight
Visualization observer readout
Local Sidereal Time
17:02:57
Azimuth
111.643° ESE
Elevation
-69.545°
Doppler factor
1
Orbital elements
Apogee altitude
476.313 km
Perigee altitude
474.698 km
Semi-major axis
6,853.643 km
Eccentricity
0.00012
Inclination
53.1594°
RAAN
160.2543°
Arg. of periapsis
97.1494°
True anomaly
Unknown
Mean anomaly
262.9641°
Eccentric anomaly
Unknown
Mean motion
3.82526 °/min
Orbital period
94.11 mins
BSTAR
-0.0000057868
Loading maneuver chart data...
Loading SW <> Apogee altitude chart data...
Loading historical data...
Loading historical data...
Loading historical data...
Loading historical data...
Loading historical data...
Loading historical data...
Loading historical data...

STARLINK-32171 Visibility forecast

Observer location: undefined°, undefined°

Span
Click to sort rows by Start time (UTC) header in descending order
Start Az.
Max El. time (UTC)
Max El. Az.
Max El.
End time (UTC)
End Az.
4 mins2025-07-02 06:19:24.340Z344.3° N2025-07-02 06:21:24.340Z19.601° NNE15.128°2025-07-02 06:23:24.340Z54.411° ENE
6 mins2025-07-02 07:57:24.340Z319.275° NNW2025-07-02 07:59:24.340Z356.543° N39.879°2025-07-02 08:03:24.340Z119.96° SE
5 mins2025-07-03 00:53:24.340Z212.356° SW2025-07-03 00:55:24.340Z129.146° SE42.141°2025-07-03 00:58:24.340Z56.619° ENE
|